| time (UTC) | temp C | wind direction | speed KPH | gust KPH | rain 1hr cm | rain 24hr cm | rain mn cm | humidity % | barometer mb |
| 20260503031035 | 23 | 315 | 3.2 | 6.4 | 0.00 | 7.52 | 7.67 | 98 | 1010.8 |
| 20260503030741 | 23 | 282 | 3.2 | 4.8 | 0.00 | 7.52 | 7.65 | 98 | 1010.7 |
| 20260503030032 | 23 | 137 | 0.0 | 3.2 | 0.00 | 7.52 | 7.67 | 99 | 1010.7 |
| 20260503025708 | 23 | 0 | 0.0 | 0.0 | 0.00 | 7.52 | 7.65 | 98 | 1010.5 |
| 20260503025030 | 23 | 191 | 1.6 | 4.8 | 0.00 | 7.52 | 7.67 | 99 | 1010.6 |
| 20260503024635 | 23 | 170 | 1.6 | 1.6 | 0.00 | 7.52 | 7.65 | 99 | 1010.3 |
| 20260503024029 | 23 | 204 | 1.6 | 3.2 | 0.00 | 7.52 | 7.67 | 99 | 1010.6 |
| 20260503023602 | 23 | 0 | 0.0 | 1.6 | 0.00 | 7.52 | 7.65 | 99 | 1010.2 |
| 20260503023046 | 23 | 90 | 1.6 | 4.8 | 0.00 | 7.52 | 7.67 | 99 | 1010.4 |
| 20260503022529 | 23 | 105 | 1.6 | 3.2 | 0.00 | 7.52 | 7.65 | 99 | 1010.1 |
| 20260503022023 | 23 | 132 | 3.2 | 6.4 | 0.00 | 7.52 | 7.67 | 99 | 1010.3 |
| 20260503021456 | 23 | 151 | 1.6 | 3.2 | 0.00 | 7.52 | 7.65 | 99 | 1010.0 |
| 20260503021021 | 23 | 129 | 3.2 | 6.4 | 0.00 | 7.52 | 7.67 | 99 | 1010.1 |
| 20260503020423 | 23 | 150 | 3.2 | 4.8 | 0.00 | 7.52 | 7.65 | 99 | 1010.0 |
| 20260503020039 | 23 | 159 | 3.2 | 4.8 | 0.00 | 7.52 | 7.67 | 99 | 1010.2 |
| 20260503015741 | 23 | 149 | 3.2 | 3.2 | 0.00 | 7.52 | 7.65 | 99 | 1009.8 |
| 20260503015350 | 23 | 149 | 3.2 | 3.2 | 0.00 | 7.52 | 7.65 | 99 | 1009.8 |
| 20260503015016 | 23 | 147 | 3.2 | 6.4 | 0.00 | 7.54 | 7.67 | 99 | 1010.3 |
| 20260503014317 | 23 | 149 | 1.6 | 4.8 | 0.00 | 7.52 | 7.65 | 99 | 1009.9 |
| 20260503014034 | 23 | 185 | 3.2 | 6.4 | 0.00 | 7.54 | 7.67 | 99 | 1010.2 |
| 20260503013244 | 23 | 150 | 3.2 | 3.2 | 0.00 | 7.52 | 7.65 | 99 | 1009.8 |
| 20260503013031 | 23 | 150 | 3.2 | 4.8 | 0.00 | 7.54 | 7.67 | 99 | 1010.2 |
| 20260503012029 | 23 | 121 | 3.2 | 6.4 | 0.00 | 7.54 | 7.67 | 99 | 1010.1 |
| 20260503011411 | 23 | 174 | 3.2 | 3.2 | 0.00 | 7.52 | 7.65 | 99 | 1009.7 |
| 20260503011027 | 23 | 124 | 3.2 | 6.4 | 0.00 | 7.54 | 7.67 | 99 | 1010.1 |
| 20260503011011 | 23 | 97 | 1.6 | 3.2 | 0.00 | 7.52 | 7.65 | 99 | 1009.9 |
| 20260503010811 | 23 | 159 | 4.8 | 4.8 | 0.00 | 7.52 | 7.65 | 99 | 1009.8 |
| 20260503010530 | 23 | 149 | 1.6 | 3.2 | 0.00 | 7.52 | 7.65 | 99 | 1009.8 |
| 20260503010027 | 23 | 98 | 3.2 | 6.4 | 0.00 | 7.52 | 7.67 | 99 | 1009.9 |
| 20260503005457 | 23 | 212 | 1.6 | 3.2 | 0.00 | 7.52 | 7.65 | 99 | 1009.8 |
| 20260503005025 | 23 | 71 | 3.2 | 6.4 | 0.00 | 7.52 | 7.67 | 99 | 1009.8 |
| 20260503004424 | 23 | 107 | 4.8 | 6.4 | 0.00 | 7.52 | 7.65 | 99 | 1009.4 |
| 20260503004022 | 23 | 122 | 3.2 | 6.4 | 0.03 | 7.52 | 7.67 | 99 | 1009.7 |
| 20260503003351 | 23 | 355 | 1.6 | 4.8 | 0.03 | 7.52 | 7.65 | 99 | 1009.6 |
| 20260503003040 | 23 | 83 | 3.2 | 8.0 | 0.05 | 7.54 | 7.67 | 99 | 1009.7 |
| 20260503002318 | 23 | 0 | 0.0 | 1.6 | 0.03 | 7.52 | 7.65 | 99 | 1009.5 |
| 20260503002017 | 23 | 163 | 3.2 | 6.4 | 0.05 | 7.54 | 7.67 | 99 | 1009.7 |
| 20260503001245 | 23 | 125 | 1.6 | 3.2 | 0.05 | 7.52 | 7.65 | 99 | 1009.5 |
| 20260503001035 | 23 | 96 | 1.6 | 4.8 | 0.05 | 7.54 | 7.67 | 99 | 1009.8 |
| 20260503000212 | 23 | 148 | 3.2 | 3.2 | 0.08 | 7.52 | 7.65 | 99 | 1009.6 |
| 20260503000033 | 23 | 170 | 3.2 | 4.8 | 0.08 | 7.54 | 7.65 | 99 | 1010.1 |
| 20260502235139 | 23 | 175 | 3.2 | 4.8 | 0.10 | 7.54 | 7.65 | 99 | 1009.7 |
| 20260502235030 | 23 | 135 | 3.2 | 6.4 | 0.13 | 7.54 | 7.65 | 99 | 1010.0 |
| 20260502234106 | 23 | 201 | 6.4 | 6.4 | 0.15 | 7.52 | 7.62 | 99 | 1009.7 |
| 20260502234048 | 23 | 161 | 3.2 | 6.4 | 0.15 | 7.54 | 7.65 | 99 | 1009.9 |
| 20260502233033 | 23 | 127 | 3.2 | 3.2 | 0.23 | 7.52 | 7.62 | 99 | 1009.7 |
| 20260502233026 | 23 | 136 | 3.2 | 8.0 | 0.20 | 7.52 | 7.62 | 99 | 1009.9 |
| 20260502232023 | 23 | 190 | 3.2 | 6.4 | 0.30 | 7.52 | 7.62 | 99 | 1010.0 |
| 20260502232000 | 23 | 207 | 1.6 | 3.2 | 0.36 | 7.49 | 7.59 | 99 | 1009.7 |
| 20260502231021 | 23 | 152 | 1.6 | 6.4 | 0.43 | 7.52 | 7.59 | 99 | 1010.1 |
| 20260502230927 | 23 | 147 | 3.2 | 4.8 | 0.43 | 7.49 | 7.59 | 99 | 1009.8 |
| 20260502230018 | 23 | 166 | 1.6 | 6.4 | 0.43 | 7.47 | 7.57 | 99 | 1010.1 |
| 20260502225854 | 23 | 126 | 1.6 | 3.2 | 0.43 | 7.47 | 7.57 | 99 | 1009.6 |
| 20260502225035 | 23 | 57 | 3.2 | 8.0 | 0.48 | 7.44 | 7.52 | 99 | 1010.0 |
| 20260502224821 | 23 | 42 | 1.6 | 3.2 | 0.61 | 7.42 | 7.52 | 99 | 1009.7 |
| 20260502224033 | 23 | 40 | 1.6 | 4.8 | 0.66 | 7.42 | 7.47 | 99 | 1009.9 |
| 20260502223748 | 23 | 66 | 1.6 | 3.2 | 0.66 | 7.37 | 7.44 | 99 | 1009.6 |
| 20260502223032 | 23 | 148 | 1.6 | 3.2 | 0.76 | 7.37 | 7.42 | 99 | 1009.7 |
| 20260502222715 | 23 | 169 | 1.6 | 3.2 | 0.94 | 7.32 | 7.37 | 99 | 1009.4 |
| 20260502222029 | 23 | 154 | 3.2 | 6.4 | 1.14 | 7.34 | 7.32 | 99 | 1009.8 |
| 20260502221642 | 23 | 176 | 4.8 | 4.8 | 1.32 | 7.90 | 7.24 | 99 | 1009.4 |
| 20260502221027 | 23 | 81 | 1.6 | 3.2 | 1.42 | 8.36 | 7.19 | 99 | 1010.0 |
| 20260502220609 | 23 | 84 | 1.6 | 3.2 | 1.37 | 9.17 | 7.14 | 99 | 1009.6 |
| 20260502220024 | 23 | 51 | 3.2 | 4.8 | 1.37 | 10.21 | 7.14 | 99 | 1009.9 |
| 20260502215536 | 23 | 0 | 0.0 | 3.2 | 1.30 | 11.13 | 7.11 | 99 | 1009.4 |
| 20260502215022 | 23 | 171 | 1.6 | 4.8 | 1.32 | 11.15 | 7.06 | 99 | 1009.9 |
| 20260502214503 | 23 | 246 | 1.6 | 1.6 | 1.24 | 11.30 | 6.86 | 99 | 1009.6 |
| 20260502214019 | 23 | 5 | 1.6 | 3.2 | 1.27 | 11.30 | 6.83 | 99 | 1010.1 |
| 20260502213430 | 23 | 0 | 0.0 | 1.6 | 1.57 | 11.23 | 6.73 | 99 | 1009.8 |
| 20260502213017 | 23 | 84 | 3.2 | 12.9 | 1.57 | 11.23 | 6.65 | 99 | 1010.0 |
| 20260502212357 | 23 | 86 | 3.2 | 4.8 | 2.49 | 10.72 | 6.32 | 99 | 1009.5 |
| 20260502212035 | 24 | 100 | 8.0 | 11.3 | 2.49 | 10.74 | 6.17 | 99 | 1009.9 |
| 20260502211557 | 24 | 106 | 8.0 | 12.9 | 3.94 | 10.34 | 5.89 | 99 | 1009.6 |
| 20260502211157 | 24 | 86 | 4.8 | 8.0 | 3.94 | 10.34 | 5.77 | 99 | 1009.6 |
| 20260502211032 | 24 | 85 | 8.0 | 11.3 | 3.94 | 10.34 | 5.77 | 99 | 1009.8 |
| 20260502210957 | 24 | 88 | 9.7 | 9.7 | 4.83 | 10.31 | 5.74 | 99 | 1009.5 |
| 20260502204111 | 24 | 48 | 3.2 | 4.8 | 5.08 | 10.13 | 5.44 | 99 | 1009.6 |
| 20260502203353 | 23 | 311 | 1.6 | 1.6 | 4.60 | 9.63 | 5.13 | 99 | 1009.4 |
| 20260502203029 | 24 | 74 | 4.8 | 8.0 | 4.60 | 9.65 | 4.93 | 98 | 1009.5 |
| 20260502202320 | 24 | 99 | 12.9 | 20.9 | 3.17 | 8.23 | 4.09 | 98 | 1009.1 |
| 20260502202027 | 24 | 87 | 11.3 | 20.9 | 3.20 | 8.26 | 3.53 | 97 | 1009.2 |
| 20260502201247 | 24 | 81 | 6.4 | 16.1 | 1.37 | 6.40 | 2.11 | 96 | 1008.8 |
| 20260502201025 | 25 | 87 | 12.9 | 27.4 | 1.40 | 6.40 | 1.70 | 95 | 1008.8 |
| 20260502200447 | 25 | 73 | 11.3 | 25.7 | 0.33 | 5.33 | 0.74 | 93 | 1008.3 |
| 20260502200047 | 26 | 110 | 9.7 | 16.1 | 0.30 | 5.31 | 0.61 | 93 | 1008.1 |
| 20260502200022 | 26 | 114 | 11.3 | 22.5 | 0.36 | 5.36 | 0.64 | 93 | 1008.6 |
| 20260502195847 | 26 | 112 | 11.3 | 16.1 | 0.30 | 5.31 | 0.61 | 92 | 1008.1 |
| 20260502195542 | 27 | 109 | 11.3 | 20.9 | 0.33 | 5.31 | 0.58 | 91 | 1008.2 |
| 20260502194520 | 27 | 114 | 1.6 | 3.2 | 0.15 | 5.13 | 0.41 | 91 | 1008.0 |
| 20260502193517 | 27 | 177 | 3.2 | 6.4 | 0.05 | 5.05 | 0.33 | 91 | 1008.3 |
| 20260502192535 | 27 | 132 | 3.2 | 6.4 | 0.10 | 5.05 | 0.33 | 91 | 1008.1 |
| 20260502191532 | 28 | 138 | 4.8 | 9.7 | 0.30 | 5.03 | 0.30 | 90 | 1008.1 |
| 20260502190530 | 28 | 170 | 6.4 | 11.3 | 0.28 | 5.00 | 0.28 | 88 | 1008.0 |
| 20260502185527 | 28 | 132 | 4.8 | 11.3 | 0.28 | 5.00 | 0.28 | 88 | 1008.1 |
| 20260502184546 | 28 | 159 | 4.8 | 9.7 | 0.28 | 5.00 | 0.28 | 90 | 1008.0 |
| 20260502183543 | 28 | 151 | 3.2 | 8.0 | 0.25 | 5.00 | 0.25 | 90 | 1008.3 |
| 20260502182540 | 29 | 151 | 4.8 | 9.7 | 0.23 | 4.98 | 0.23 | 86 | 1008.6 |
| 20260502181518 | 30 | 136 | 4.8 | 9.7 | 0.00 | 4.78 | 0.00 | 82 | 1008.7 |
| 20260502180536 | 30 | 178 | 4.8 | 9.7 | 0.00 | 4.88 | 0.00 | 81 | 1008.7 |
| 20260502123810 | 26 | 0 | 0.0 | 6.4 | 0.00 | 4.85 | 0.00 | 94 | 1007.9 |
| 20260502123034 | 26 | 47 | 3.2 | 6.4 | 0.00 | 4.88 | 0.00 | 95 | 1008.2 |
| 20260502122737 | 26 | 0 | 0.0 | 3.2 | 0.00 | 4.85 | 0.00 | 95 | 1007.7 |
| 20260502122032 | 26 | 75 | 3.2 | 8.0 | 0.00 | 4.88 | 0.00 | 95 | 1008.2 |
| 20260502121704 | 26 | 81 | 1.6 | 3.2 | 0.00 | 4.85 | 0.00 | 95 | 1007.8 |
| 20260502121030 | 26 | 26 | 4.8 | 9.7 | 0.00 | 4.88 | 0.00 | 95 | 1008.1 |
| 20260502115558 | 25 | 184 | 1.6 | 1.6 | 0.00 | 4.85 | 0.00 | 95 | 1007.3 |
| 20260502115024 | 26 | 41 | 1.6 | 4.8 | 0.00 | 4.88 | 0.00 | 95 | 1007.3 |
| 20260502114525 | 25 | 0 | 0.0 | 1.6 | 0.00 | 4.85 | 0.00 | 95 | 1006.9 |
| 20260502114042 | 26 | 27 | 4.8 | 8.0 | 0.00 | 4.88 | 0.00 | 95 | 1007.3 |
| 20260502113041 | 26 | 28 | 4.8 | 9.7 | 0.00 | 4.88 | 0.00 | 95 | 1007.4 |
| 20260502112017 | 26 | 27 | 3.2 | 6.4 | 0.00 | 4.88 | 0.00 | 96 | 1007.4 |
| 20260502111346 | 25 | 35 | 3.2 | 3.2 | 0.00 | 4.85 | 0.00 | 96 | 1007.1 |
| 20260502111056 | 26 | 26 | 3.2 | 4.8 | 0.00 | 4.88 | 0.00 | 96 | 1007.3 |
| 20260502110313 | 25 | 35 | 3.2 | 4.8 | 0.00 | 4.85 | 0.00 | 96 | 1007.0 |
| 20260502110033 | 26 | 33 | 3.2 | 4.8 | 0.00 | 4.88 | 0.00 | 96 | 1007.1 |
| 20260502105240 | 25 | 52 | 1.6 | 3.2 | 0.00 | 4.85 | 0.00 | 95 | 1006.9 |
| 20260502105031 | 26 | 49 | 3.2 | 6.4 | 0.00 | 4.88 | 0.00 | 95 | 1007.1 |
| 20260502104207 | 25 | 43 | 3.2 | 4.8 | 0.00 | 4.85 | 0.00 | 95 | 1006.5 |
| 20260502104029 | 26 | 352 | 4.8 | 8.0 | 0.00 | 4.88 | 0.00 | 95 | 1007.1 |
| 20260502103134 | 25 | 327 | 3.2 | 6.4 | 0.00 | 4.85 | 0.00 | 96 | 1006.8 |
| 20260502103026 | 26 | 330 | 6.4 | 11.3 | 0.00 | 4.88 | 0.00 | 96 | 1007.1 |
| 20260502102101 | 25 | 30 | 3.2 | 4.8 | 0.00 | 4.85 | 0.00 | 96 | 1006.8 |
| 20260502102024 | 26 | 10 | 4.8 | 9.7 | 0.00 | 4.88 | 0.00 | 96 | 1007.0 |
| 20260502101028 | 25 | 59 | 3.2 | 3.2 | 0.00 | 4.85 | 0.00 | 96 | 1006.6 |
| 20260502101021 | 26 | 36 | 4.8 | 9.7 | 0.00 | 4.88 | 0.00 | 96 | 1006.9 |
| 20260502091027 | 26 | 314 | 1.6 | 3.2 | 0.00 | 4.88 | 0.00 | 96 | 1006.0 |
| 20260502090710 | 25 | 0 | 0.0 | 1.6 | 0.00 | 4.85 | 0.00 | 96 | 1005.7 |
| 20260502071107 | 26 | 26 | 1.6 | 4.8 | 0.00 | 4.85 | 0.00 | 96 | 1006.7 |
| 20260502071018 | 26 | 43 | 3.2 | 8.0 | 0.00 | 4.88 | 0.00 | 96 | 1007.0 |
| 20260502070056 | 26 | 2 | 3.2 | 8.0 | 0.00 | 4.88 | 0.00 | 97 | 1007.2 |
| 20260502070034 | 26 | 355 | 6.4 | 6.4 | 0.00 | 4.85 | 0.00 | 97 | 1007.0 |
| 20260502065053 | 26 | 14 | 4.8 | 9.7 | 0.00 | 4.88 | 0.00 | 97 | 1007.2 |
| 20260502065001 | 26 | 8 | 1.6 | 3.2 | 0.00 | 4.85 | 0.00 | 97 | 1006.8 |
| 20260502064031 | 26 | 42 | 1.6 | 4.8 | 0.00 | 4.88 | 0.00 | 97 | 1007.5 |
| 20260502063928 | 26 | 19 | 3.2 | 3.2 | 0.00 | 4.85 | 0.00 | 97 | 1007.2 |
| 20260502063028 | 26 | 32 | 1.6 | 3.2 | 0.00 | 4.88 | 0.00 | 97 | 1007.5 |
| 20260502062855 | 25 | 55 | 1.6 | 3.2 | 0.00 | 4.85 | 0.00 | 97 | 1007.1 |
| 20260502062026 | 26 | 12 | 1.6 | 3.2 | 0.00 | 4.88 | 0.00 | 97 | 1007.6 |
| 20260502061822 | 26 | 0 | 0.0 | 1.6 | 0.00 | 4.85 | 0.00 | 97 | 1007.1 |
| 20260502061024 | 26 | 21 | 1.6 | 3.2 | 0.00 | 4.88 | 0.00 | 97 | 1007.8 |
| 20260502060749 | 26 | 336 | 1.6 | 3.2 | 0.00 | 4.85 | 0.00 | 97 | 1007.4 |
| 20260502060022 | 26 | 303 | 0.0 | 3.2 | 0.00 | 4.88 | 0.00 | 97 | 1007.8 |
| 20260502055716 | 26 | 0 | 0.0 | 1.6 | 0.00 | 4.85 | 0.00 | 97 | 1007.4 |
| 20260502055019 | 26 | 325 | 1.6 | 4.8 | 0.00 | 4.88 | 0.00 | 97 | 1007.7 |
| 20260502054643 | 26 | 334 | 3.2 | 3.2 | 0.00 | 4.85 | 0.00 | 97 | 1007.4 |
| 20260502054016 | 26 | 203 | 1.6 | 4.8 | 0.00 | 4.88 | 0.00 | 97 | 1007.7 |
| 20260502053610 | 26 | 197 | 1.6 | 3.2 | 0.00 | 4.85 | 0.00 | 97 | 1007.3 |
| 20260502053034 | 26 | 185 | 3.2 | 6.4 | 0.00 | 4.88 | 0.00 | 97 | 1007.8 |
| 20260502052537 | 26 | 257 | 1.6 | 1.6 | 0.00 | 4.85 | 0.00 | 97 | 1007.4 |
| 20260502052032 | 26 | 72 | 1.6 | 4.8 | 0.00 | 4.88 | 0.00 | 97 | 1007.8 |
| 20260502051504 | 26 | 92 | 1.6 | 1.6 | 0.00 | 4.85 | 0.00 | 97 | 1007.4 |
| 20260502051030 | 26 | 181 | 1.6 | 4.8 | 0.00 | 4.88 | 0.00 | 97 | 1007.6 |
| 20260502050431 | 26 | 0 | 0.0 | 1.6 | 0.00 | 4.85 | 0.00 | 97 | 1006.9 |
| 20260502050027 | 26 | 71 | 1.6 | 6.4 | 0.00 | 4.88 | 4.88 | 97 | 1007.2 |
| 20260502045358 | 26 | 0 | 0.0 | 3.2 | 0.00 | 4.85 | 4.85 | 97 | 1007.1 |
| 20260502045045 | 26 | 58 | 1.6 | 6.4 | 0.00 | 4.88 | 4.88 | 97 | 1007.1 |
| 20260502044325 | 26 | 0 | 0.0 | 1.6 | 0.00 | 4.85 | 4.85 | 96 | 1006.7 |
| 20260502044022 | 26 | 9 | 1.6 | 4.8 | 0.00 | 4.88 | 4.88 | 96 | 1007.5 |
| 20260502043252 | 26 | 58 | 1.6 | 3.2 | 0.00 | 4.85 | 4.85 | 96 | 1007.1 |
| 20260502043020 | 26 | 53 | 1.6 | 3.2 | 0.00 | 4.88 | 4.88 | 96 | 1007.4 |
| 20260502042219 | 26 | 353 | 4.8 | 4.8 | 0.00 | 4.85 | 4.85 | 96 | 1007.3 |
| 20260502042018 | 26 | 37 | 1.6 | 4.8 | 0.00 | 4.85 | 4.85 | 96 | 1007.7 |
| 20260502041146 | 26 | 318 | 4.8 | 6.4 | 0.00 | 4.85 | 4.85 | 96 | 1007.6 |
| 20260502041036 | 26 | 344 | 3.2 | 9.7 | 0.00 | 4.85 | 4.85 | 96 | 1008.1 |
| 20260502040113 | 26 | 66 | 1.6 | 3.2 | 0.00 | 4.85 | 4.85 | 96 | 1007.8 |
| 20260502040032 | 26 | 25 | 3.2 | 6.4 | 0.00 | 4.85 | 4.85 | 96 | 1008.1 |
| 20260502035040 | 26 | 53 | 3.2 | 3.2 | 0.00 | 4.85 | 4.85 | 96 | 1007.9 |
| 20260502035031 | 26 | 35 | 3.2 | 6.4 | 0.00 | 4.85 | 4.85 | 96 | 1008.2 |